| time (UTC) | temp F | wind direction | speed MPH | gust MPH | rain 1hr in | rain 24hr in | rain mn in | humidity % | barometer mb |
| 20260904223112 | 83 | 75 | 5.0 | 11.0 | 0.00 | 0.00 | 0.00 | 40 | 1019.7 |
| 20260904221607 | 82 | 91 | 10.0 | 18.0 | 0.00 | 0.00 | 0.00 | 43 | 1019.9 |
| 20260904214541 | 79 | 93 | 13.0 | 18.0 | 0.00 | 0.00 | 0.00 | 48 | 1020.2 |
| 20260904213131 | 79 | 79 | 11.0 | 18.0 | 0.00 | 0.00 | 0.00 | 48 | 1020.4 |
| 20260904211553 | 77 | 91 | 15.0 | 21.0 | 0.00 | 0.00 | 0.00 | 51 | 1020.9 |
| 20260904204551 | 78 | 92 | 18.0 | 26.0 | 0.00 | 0.00 | 0.00 | 44 | 1021.4 |
| 20260904203017 | 80 | 128 | 16.0 | 29.0 | 0.00 | 0.00 | 0.00 | 33 | 1021.6 |
| 20260904201607 | 85 | 131 | 0.0 | 8.0 | 0.00 | 0.00 | 0.00 | 36 | 1021.3 |
| 20260904200022 | 85 | 154 | 0.0 | 11.0 | 0.00 | 0.00 | 0.00 | 36 | 1021.1 |
| 20260904194602 | 85 | 265 | 2.0 | 8.0 | 0.00 | 0.00 | 0.00 | 36 | 1021.2 |
| 20260904193018 | 85 | 264 | 0.0 | 9.0 | 0.00 | 0.00 | 0.00 | 37 | 1021.4 |
| 20260904191608 | 85 | 105 | 0.0 | 7.0 | 0.00 | 0.00 | 0.00 | 36 | 1021.5 |
| 20260904184600 | 85 | 252 | 0.0 | 18.0 | 0.00 | 0.00 | 0.00 | 36 | 1021.9 |
| 20260904183007 | 83 | 247 | 0.0 | 6.0 | 0.00 | 0.00 | 0.00 | 39 | 1022.3 |
| 20260904181603 | 83 | 253 | 0.0 | 9.0 | 0.00 | 0.00 | 0.00 | 39 | 1022.5 |
| 20260904174546 | 81 | 249 | 2.0 | 7.0 | 0.00 | 0.00 | 0.00 | 39 | 1023.0 |
| 20260904173007 | 82 | 278 | 1.0 | 8.0 | 0.00 | 0.00 | 0.00 | 41 | 1023.2 |
| 20260904171601 | 82 | 276 | 0.0 | 8.0 | 0.00 | 0.00 | 0.00 | 42 | 1023.2 |
| 20260904164608 | 81 | 259 | 0.0 | 5.0 | 0.00 | 0.00 | 0.00 | 44 | 1023.3 |
| 20260904163031 | 80 | 211 | 1.0 | 6.0 | 0.00 | 0.00 | 0.00 | 46 | 1023.2 |
| 20260904161526 | 79 | 283 | 0.0 | 4.0 | 0.00 | 0.00 | 0.00 | 48 | 1023.2 |
| 20260904160034 | 78 | 247 | 2.0 | 7.0 | 0.00 | 0.00 | 0.00 | 50 | 1023.3 |
| 20260904154517 | 77 | 222 | 1.0 | 9.0 | 0.00 | 0.00 | 0.00 | 51 | 1023.4 |
| 20260904153014 | 76 | 222 | 0.0 | 8.0 | 0.00 | 0.00 | 0.00 | 54 | 1023.5 |
| 20260904151515 | 75 | 252 | 1.0 | 6.0 | 0.00 | 0.00 | 0.00 | 54 | 1023.3 |
| 20260904150015 | 75 | 265 | 0.0 | 7.0 | 0.00 | 0.00 | 0.00 | 54 | 1023.2 |
| 20260904144511 | 75 | 229 | 2.0 | 9.0 | 0.00 | 0.00 | 0.00 | 55 | 1023.2 |
| 20260904143003 | 74 | 194 | 5.0 | 8.0 | 0.00 | 0.00 | 0.00 | 56 | 1023.2 |
| 20260904141625 | 74 | 240 | 2.0 | 10.0 | 0.00 | 0.00 | 0.00 | 57 | 1023.2 |
| 20260904134523 | 73 | 208 | 4.0 | 11.0 | 0.00 | 0.00 | 0.00 | 59 | 1022.8 |
| 20260904133122 | 72 | 228 | 0.0 | 15.0 | 0.00 | 0.00 | 0.00 | 59 | 1022.7 |
| 20260904131632 | 72 | 207 | 0.0 | 8.0 | 0.00 | 0.00 | 0.00 | 59 | 1022.3 |
| 20260904130056 | 72 | 235 | 0.0 | 6.0 | 0.00 | 0.00 | 0.00 | 60 | 1022.0 |
| 20260904124557 | 72 | 235 | 1.0 | 8.0 | 0.00 | 0.00 | 0.00 | 60 | 1021.8 |
| 20260904123105 | 72 | 215 | 0.0 | 5.0 | 0.00 | 0.00 | 0.00 | 60 | 1021.7 |
| 20260904121550 | 72 | 207 | 0.0 | 7.0 | 0.00 | 0.00 | 0.00 | 59 | 1021.5 |
| 20260904120048 | 72 | 188 | 0.0 | 13.0 | 0.00 | 0.00 | 0.00 | 59 | 1021.5 |
| 20260904114547 | 72 | 216 | 1.0 | 10.0 | 0.00 | 0.00 | 0.00 | 59 | 1021.4 |
| 20260904113046 | 72 | 232 | 1.0 | 10.0 | 0.00 | 0.00 | 0.00 | 58 | 1021.3 |
| 20260904111551 | 73 | 219 | 8.0 | 13.0 | 0.00 | 0.00 | 0.00 | 58 | 1021.0 |
| 20260904110042 | 73 | 193 | 2.0 | 7.0 | 0.00 | 0.00 | 0.00 | 56 | 1020.9 |
| 20260904104539 | 72 | 252 | 1.0 | 9.0 | 0.00 | 0.00 | 0.00 | 56 | 1020.9 |
| 20260904103041 | 72 | 258 | 0.0 | 1.0 | 0.00 | 0.00 | 0.00 | 55 | 1020.9 |
| 20260904101535 | 73 | 244 | 0.0 | 3.0 | 0.00 | 0.00 | 0.00 | 53 | 1020.7 |
| 20260904100031 | 73 | 214 | 1.0 | 7.0 | 0.00 | 0.00 | 0.00 | 51 | 1020.7 |
| 20260904094529 | 73 | 253 | 0.0 | 7.0 | 0.00 | 0.00 | 0.00 | 51 | 1020.7 |
| 20260904093027 | 73 | 243 | 0.0 | 0.0 | 0.00 | 0.00 | 0.00 | 49 | 1020.8 |
| 20260904091626 | 73 | 247 | 0.0 | 0.0 | 0.00 | 0.00 | 0.00 | 48 | 1020.7 |
| 20260904090025 | 74 | 246 | 0.0 | 0.0 | 0.00 | 0.00 | 0.00 | 45 | 1020.7 |
| 20260904084519 | 75 | 235 | 0.0 | 0.0 | 0.00 | 0.00 | 0.00 | 44 | 1020.7 |
| 20260904083020 | 75 | 254 | 0.0 | 0.0 | 0.00 | 0.00 | 0.00 | 44 | 1020.7 |
| 20260904081516 | 76 | 268 | 0.0 | 1.0 | 0.00 | 0.00 | 0.00 | 41 | 1020.7 |
| 20260904080015 | 76 | 219 | 0.0 | 0.0 | 0.00 | 0.00 | 0.00 | 41 | 1020.7 |
| 20260904074512 | 76 | 229 | 0.0 | 0.0 | 0.00 | 0.00 | 0.00 | 42 | 1020.5 |
| 20260904073011 | 76 | 156 | 0.0 | 0.0 | 0.00 | 0.00 | 0.00 | 43 | 1020.5 |
| 20260904071527 | 76 | 156 | 0.0 | 0.0 | 0.00 | 0.00 | 0.00 | 43 | 1020.4 |
| 20260904070012 | 75 | 157 | 0.0 | 0.0 | 0.00 | 0.00 | 0.00 | 42 | 1020.5 |
| 20260904064506 | 75 | 156 | 0.0 | 0.0 | 0.00 | 0.00 | 0.00 | 41 | 1020.5 |
| 20260904063004 | 75 | 121 | 0.0 | 0.0 | 0.00 | 0.00 | 0.00 | 41 | 1020.4 |
| 20260904061502 | 76 | 121 | 0.0 | 0.0 | 0.00 | 0.00 | 0.00 | 40 | 1020.3 |
| 20260904060113 | 76 | 121 | 0.0 | 0.0 | 0.00 | 0.00 | 0.00 | 40 | 1020.4 |
| 20260904054555 | 76 | 121 | 0.0 | 0.0 | 0.00 | 0.00 | 0.00 | 40 | 1020.2 |
| 20260904053049 | 76 | 39 | 0.0 | 0.0 | 0.00 | 0.00 | 0.00 | 39 | 1020.3 |
| 20260904051546 | 76 | 149 | 0.0 | 0.0 | 0.00 | 0.00 | 0.00 | 39 | 1020.2 |
| 20260904050042 | 77 | 150 | 0.0 | 0.0 | 0.00 | 0.00 | 0.00 | 38 | 1020.1 |
| 20260904044546 | 78 | 149 | 0.0 | 0.0 | 0.00 | 0.00 | 0.00 | 37 | 1020.1 |
| 20260904043034 | 79 | 14 | 0.0 | 0.0 | 0.00 | 0.00 | 0.00 | 35 | 1020.1 |
| 20260904041526 | 80 | 15 | 0.0 | 0.0 | 0.00 | 0.00 | 0.00 | 34 | 1020.2 |
| 20260904040023 | 81 | 14 | 0.0 | 0.0 | 0.00 | 0.00 | 0.00 | 33 | 1020.2 |
| 20260904034522 | 81 | 129 | 0.0 | 0.0 | 0.00 | 0.00 | 0.00 | 33 | 1020.0 |
| 20260904033013 | 80 | 154 | 0.0 | 0.0 | 0.00 | 0.00 | 0.00 | 34 | 1020.0 |
| 20260904031508 | 81 | 324 | 0.0 | 0.0 | 0.00 | 0.00 | 0.00 | 34 | 1019.8 |
| 20260904030004 | 82 | 313 | 0.0 | 0.0 | 0.00 | 0.00 | 0.00 | 33 | 1019.6 |
| 20260904024603 | 82 | 301 | 0.0 | 0.0 | 0.00 | 0.00 | 0.00 | 33 | 1019.3 |
| 20260904023103 | 83 | 297 | 0.0 | 1.0 | 0.00 | 0.00 | 0.00 | 32 | 1019.1 |
| 20260904021551 | 83 | 292 | 1.0 | 9.0 | 0.00 | 0.00 | 0.00 | 32 | 1019.1 |
| 20260904020046 | 84 | 284 | 3.0 | 10.0 | 0.00 | 0.00 | 0.00 | 31 | 1018.8 |
| 20260904014545 | 85 | 278 | 1.0 | 9.0 | 0.00 | 0.00 | 0.00 | 29 | 1018.6 |
| 20260904013036 | 85 | 264 | 0.0 | 1.0 | 0.00 | 0.00 | 0.00 | 26 | 1018.5 |
| 20260904011538 | 86 | 273 | 0.0 | 6.0 | 0.00 | 0.00 | 0.00 | 25 | 1018.4 |
| 20260904010040 | 86 | 257 | 0.0 | 1.0 | 0.00 | 0.00 | 0.00 | 25 | 1018.4 |
| 20260904004523 | 85 | 269 | 6.0 | 10.0 | 0.00 | 0.00 | 0.00 | 30 | 1018.3 |
| 20260904003019 | 86 | 95 | 1.0 | 8.0 | 0.00 | 0.00 | 0.00 | 30 | 1018.2 |
| 20260904001513 | 86 | 109 | 3.0 | 10.0 | 0.00 | 0.00 | 0.00 | 30 | 1018.4 |
| 20260904000009 | 86 | 112 | 2.0 | 10.0 | 0.00 | 0.00 | 0.00 | 31 | 1018.5 |
| 20260903234505 | 87 | 92 | 4.0 | 11.0 | 0.00 | 0.00 | 0.00 | 29 | 1018.5 |
| 20260903233000 | 86 | 116 | 4.0 | 16.0 | 0.00 | 0.00 | 0.00 | 29 | 1018.6 |
| 20260903231556 | 86 | 95 | 9.0 | 18.0 | 0.00 | 0.00 | 0.00 | 31 | 1018.6 |
| 20260903230052 | 85 | 119 | 10.0 | 20.0 | 0.00 | 0.00 | 0.00 | 31 | 1018.6 |
| 20260903224555 | 87 | 113 | 11.0 | 20.0 | 0.00 | 0.00 | 0.00 | 30 | 1018.8 |